This demonstration page uses our WeatherBlox Daily Observations layout. Learn more.

Left ArrowRight Arrow

39.29038, -76.61219

Hourly Observations for February 8, 2017

Temp ( °F °C ) Dew Point ( °F °C ) Humidity (%) Winds ( mph kmh ) Pressure ( in mb ) Visibility ( mi km ) Precip ( " mm )
12:54 am 00:54 undefined 66 18.9 52 11.1 61 61 undefined N/A 29.56 1001 N/A N/A
1:54 am 01:54 undefined 66 18.9 52 11.1 61 61 undefined N/A 29.56 1001 N/A N/A
2:54 am 02:54 undefined 65 18.3 52 11.1 63 63 undefined N/A 29.56 1001 N/A N/A
3:54 am 03:54 undefined 64 17.8 51 10.6 63 63 undefined N/A 29.57 1001 N/A N/A
4:54 am 04:54 undefined 62 16.7 51 10.6 67 67 undefined N/A 29.58 1002 N/A N/A
5:54 am 05:54 undefined 60 15.6 50 10 70 70 undefined N/A 29.59 1002 N/A N/A
6:54 am 06:54 undefined 58 14.4 49 9.4 72 72 undefined N/A 29.60 1002 N/A N/A
7:54 am 07:54 undefined 58 14.4 49 9.4 72 72 undefined N/A 29.62 1003 N/A N/A
8:54 am 08:54 undefined 61 16.1 50 10 67 67 undefined N/A 29.64 1004 N/A N/A
9:54 am 09:54 undefined 66 18.9 49 9.4 54 54 undefined N/A 29.66 1004 N/A N/A
10:54 am 10:54 undefined 69 20.6 45 7.2 42 42 undefined N/A 29.68 1005 N/A N/A
11:54 am 11:54 undefined 69 20.6 44 6.7 41 41 undefined N/A 29.67 1005 N/A N/A
12:54 pm 12:54 undefined 69 20.6 43 6.1 39 39 undefined N/A 29.65 1004 N/A N/A
1:54 pm 13:54 undefined 68 20 42 5.6 39 39 undefined N/A 29.65 1004 N/A N/A
2:54 pm 14:54 undefined 67 19.4 41 5 39 39 undefined N/A 29.65 1004 N/A N/A
3:54 pm 15:54 undefined 65 18.3 41 5 42 42 undefined N/A 29.67 1005 N/A N/A
4:54 pm 16:54 undefined 64 17.8 39 3.9 40 40 undefined N/A 29.67 1005 N/A N/A
5:54 pm 17:54 undefined 62 16.7 36 2.2 38 38 undefined N/A 29.67 1005 N/A N/A
6:54 pm 18:54 undefined 57 13.9 39 3.9 51 51 undefined N/A 29.70 1006 N/A N/A
7:54 pm 19:54 undefined 56 13.3 38 3.3 51 51 undefined N/A 29.69 1006 N/A N/A
8:54 pm 20:54 undefined 54 12.2 37 2.8 53 53 undefined N/A 29.67 1005 N/A N/A
9:54 pm 21:54 undefined 53 11.7 36 2.2 52 52 undefined N/A 29.65 1004 N/A N/A
10:54 pm 22:54 undefined 53 11.7 37 2.8 55 55 undefined N/A 29.65 1004 N/A N/A
11:54 pm 23:54 undefined 52 11.1 37 2.8 57 57 undefined N/A 29.61 1003 N/A N/A

Powered by AerisWeather